Flag for U.S.A. Weather past 2 weeks in St. Petersburg, Florida, U.S.A.

Now
70 °F

Sunny.


Feels Like: 77 °F
Forecast: 53 / 70 °F
Wind: 5 mph from Northeast

Location: Whitted Airport

Current Time: Dec 19, 2014 at 3:44:26 PM

Latest Report: Dec 19, 2014 at 2:53 PM


Visibility: 10 mi

Pressure: 30.03 "Hg

Humidity: 53%

Dew point: 52 °F

Location of St. PetersburgLocation

Historic Weather in St. Petersburg — Graph

°F

St. Petersburg temperature yesterday

Maximum temperature yesterday: 66 °F (at 3:53 PM)
Minimum temperature yesterday: 56 °F (at 5:53 AM)
Average temperature yesterday: 60 °F

Past Weeks' High & Low Weather Summary

 TemperatureHumidityPressure
High77 °F (Dec 6, 3:53 PM)100% (Dec 16, 7:53 AM)30.28 "Hg (Dec 16, 7:53 AM)
Low51 °F (Dec 13, 5:53 AM)30% (Dec 13, 3:53 PM)30.03 "Hg (Dec 8, 3:58 PM)
Average62 °F76%30.13 "Hg
* Reported Dec 4 2:53 PM — Dec 19 2:53 PM, St. Petersburg, Weather by CustomWeather, © 2014

Note: Actual official high and low records may vary slightly from our data, if they occured in-between our weather recording intervals... More about our weather records

Advertising

St. Petersburg weather history for previous 24 hours

 ConditionsComfort  
Time TempWeatherWind HumidityBarometerVisibility
2:53 PM
Dec 19
70 °FSunny.5 mph53%30.03 "Hg10 mi
1:53 PM70 °FSunny.5 mph49%30.06 "Hg10 mi
12:53 PM68 °FSunny.3 mph57%30.08 "Hg10 mi
11:53 AM65 °FSunny.5 mph66%30.11 "Hg10 mi
10:53 AM62 °FSunny.6 mph70%30.12 "Hg10 mi
9:53 AM61 °FSunny.6 mph67%30.13 "Hg10 mi
8:53 AM59 °FSunny.5 mph69%30.14 "Hg10 mi
7:53 AM57 °FSunny.6 mph81%30.11 "Hg10 mi
6:53 AM56 °FClear.6 mph81%30.10 "Hg10 mi
5:53 AM57 °FClear.5 mph78%30.09 "Hg10 mi
4:53 AM57 °FClear.7 mph81%30.09 "Hg10 mi
3:53 AM57 °FClear.6 mph83%30.09 "Hg10 mi
2:53 AM58 °FClear.9 mph84%30.09 "Hg10 mi
1:53 AM57 °FClear.5 mph87%30.10 "Hg10 mi
12:53 AM58 °FClear.5 mph84%30.11 "Hg10 mi
11:53 PM
Dec 18
57 °FClear.5 mph83%30.12 "Hg10 mi
10:53 PM58 °FClear.5 mph81%30.12 "Hg10 mi
9:53 PM58 °FClear.7 mph78%30.11 "Hg10 mi
8:53 PM59 °FClear.6 mph78%30.10 "Hg10 mi
7:53 PM60 °FClear.6 mph75%30.11 "Hg10 mi
6:53 PM61 °FClear.6 mph75%30.11 "Hg10 mi
5:53 PM63 °FClear.5 mph73%30.11 "Hg10 mi
4:53 PM64 °FSunny.3 mph73%30.09 "Hg10 mi
3:53 PM66 °FSunny.7 mph65%30.09 "Hg10 mi
Weather by CustomWeather, © 2014

See weather overviewHow to use our weather pages